Simultaneous Nadir Overpasses (SNOs) Predictions

Prediction of SNOs between GOES-16 and NOAA-20 Satellite Orbit:

Table of predicted SNOs for the next 14.0 days since TLE Epoch: 11/2/2019
Index Date Time (GOES-16) GOES-16 Lat,Lon NOAA-20 Lat,Lon Distance(km) Time Diff (sec)
1 11/02/2019 18:13:45 0.00, -75.19 0.58, -72.70 284.36 80
2 11/04/2019 06:38:12 -0.00, -75.20 0.65, -77.96 315.71 80
3 11/05/2019 06:16:48 -0.00, -75.20 -0.37, -73.43 201.17 80
4 11/06/2019 18:38:45 0.00, -75.21 -0.76, -78.75 402.37 80
5 11/07/2019 18:22:39 -0.00, -75.22 0.20, -74.20 115.01 80
6 11/09/2019 06:44:28 0.00, -75.24 0.97, -79.48 483.72 80
7 11/10/2019 06:23:03 0.00, -75.25 -0.05, -74.95 33.96 80
8 11/12/2019 18:26:15 -0.00, -75.28 -0.12, -75.72 50.66 80
9 11/13/2019 18:10:11 -0.01, -75.29 0.90, -71.19 467.35 80
10 11/15/2019 06:31:59 0.02, -75.32 0.26, -76.47 130.55 80




NCC Satellite Simultaneous Nadir Overpasses (SNOs) Prediction Service
